Location: Perryvale
(54.4667°N, 113.3833°W)
Time: 22:58:17
(UTC+00:00)

Vanguard 1 Rocket - Pass Details

Date: 18 May 2024
Orbit: 649 x 4221 km, 34.3° (Epoch: 13 June)

Event Time Altitude Azimuth Distance (km) Brightness Sun altitude
Rises 21:09:00 0° 252° (WSW) 5,825 12.0 50.6°
Reaches altitude 10° 21:15:09 10° 235° (SW) 4,045 11.6 50.0°
Maximum altitude 21:20:34 16° 202° (SSW) 2,891 11.0 49.5°
Drops below altitude 10° 21:24:37 10° 165° (SSE) 2,853 10.4 49.1°
Sets 21:27:50 0° 143° (SE) 3,448 10.5 48.8°
